GLOBALSTAR M004 [B]

Last updated on May 5, 2016, 7:39 a.m. UTC

1 25163U 98008B   16126.19932369 -.00000112  00000-0 -45574-4 0  9995
2 25163  51.9979 131.6327 0003205 107.5930 330.7016 12.63253808840906
UTC
Height (km)
Latitude
Longitude
Inclination
Orbital Period
UTC large
Height (km)
Speed (km/s)
/
Latitude / Longitude
Inclination (degrees)
Orbital Period (minutes)
Azimuth
Elevation
Range (km)
Doppler Factor
iOS Compass Heading
iOS Angle